Find Local Weather

World > North America > United States > Florida

Fort Myers Beach, Florida Regional Weather

Lat: 26.45N, Lon: 81.95W
Wx Zone: FLZ165
Feedback
Expires:201810151300;;219341
ASUS42 KTBW 151216
RWRFL 
FLORIDA REGIONAL WEATHER ROUNDUP
NATIONAL WEATHER SERVICE TAMPA BAY RUSKIN FL
800 AM EDT MON OCT 15 2018

NOTE: "FAIR" INDICATES FEW OR NO CLOUDS BELOW 12,000 FEET WITH NO
SIGNIFICANT WEATHER AND/OR OBSTRUCTIONS TO VISIBILITY.


FLZ066-069-070-075>078-162-262-165-265-151300-
SOUTHWEST FLORIDA AND KEYS
  
CITY           SKY/WX    TMP DP  RH WIND       PRES   REMARKS
PUNTA GORDA    FAIR      76  73  91 E6        30.09R FOG              
FT MYERS       MOCLDY    75  75 100 E3        30.06R FOG              
SOUTHWEST INTL FAIR      75  75 100 E6        30.07R FOG              
NAPLES         FAIR      74  74 100 NE7       30.05S                  
MARCO ISLAND   FAIR      76  75  97 MISG      30.06S                  
IMMOKALEE      PTCLDY    75  73  94 CALM      30.07R FOG              
MARATHON       FAIR      82  74  76 E12       30.03R                  
KEY WEST NAS   FAIR      84  75  74 E14       30.02R                  
KEY WEST INTL  FAIR      84  75  74 E12G18    30.02S                  

STATION/POSITION SKY/WX   TEMP    WIND        PRES    WAVE   SWELL
                          AIR SEA DIR/SP/G            HT/PER HT/PER
                          (F)     (DEG/KT/KT) (MB)    (FT/S) (FT/S)
NAPLES                     77 84  360/  3/  6 1017.7R
26.0N   85.6W              81 82   80/  8/ 10 1016.7
DRY TORTUGAS               83     100/ 17/ 18 1016.5R
SAND KEY                   83                 1016.3R
SOMBRERO KEY               83      60/ 19/ 22 1016.0R
LONG KEY                   83 84  100/ 17/ 18 1016.9R
MOLASSES REEF              83 83  100/ 16/ 17 1017.3

$$

SKY/WX - Weather  TMP - Temperature  DP - Dew Point  RH - Relative Humidity
WIND - Wind Direction/Speed PRES - Barometric Pressure